TimeCST,TemperatureF,Dew PointF,Humidity,Sea Level PressureIn,VisibilityMPH,Wind Direction,Wind SpeedMPH,Gust SpeedMPH,PrecipitationIn,Events,Conditions,WindDirDegrees,DateUTC
12:53 AM,35.1,26.1,70,30.28,10.0,Calm,Calm,-,N/A,,Overcast,0,2014-02-08 06:53:00
1:53 AM,34.0,25.0,70,30.28,10.0,North,4.6,-,N/A,,Overcast,10,2014-02-08 07:53:00
2:53 AM,34.0,25.0,70,30.27,10.0,Calm,Calm,-,N/A,,Mostly Cloudy,0,2014-02-08 08:53:00
3:53 AM,34.0,26.1,73,30.27,10.0,Calm,Calm,-,N/A,,Overcast,0,2014-02-08 09:53:00
4:53 AM,35.1,26.1,70,30.25,10.0,Calm,Calm,-,0.00,Rain,Light Rain,0,2014-02-08 10:53:00
5:53 AM,35.1,27.0,72,30.24,10.0,Calm,Calm,-,0.00,,Overcast,0,2014-02-08 11:53:00
6:53 AM,36.0,27.0,70,30.25,10.0,Calm,Calm,-,N/A,,Overcast,0,2014-02-08 12:53:00
7:53 AM,39.9,26.1,58,30.26,10.0,Variable,3.5,-,N/A,,Overcast,0,2014-02-08 13:53:00
8:53 AM,41.0,27.0,57,30.28,10.0,Calm,Calm,-,N/A,,Overcast,0,2014-02-08 14:53:00
9:53 AM,44.1,27.0,51,30.27,10.0,Calm,Calm,-,N/A,,Mostly Cloudy,0,2014-02-08 15:53:00
10:53 AM,46.9,28.0,48,30.25,10.0,Calm,Calm,-,N/A,,Overcast,0,2014-02-08 16:53:00
11:53 AM,50.0,30.0,46,30.24,10.0,WSW,4.6,-,N/A,,Overcast,250,2014-02-08 17:53:00
12:53 PM,51.1,30.9,46,30.21,10.0,NNW,5.8,-,N/A,,Overcast,330,2014-02-08 18:53:00
1:53 PM,51.1,33.1,50,30.18,10.0,WNW,4.6,-,N/A,,Overcast,300,2014-02-08 19:53:00
2:53 PM,52.0,35.1,53,30.17,10.0,Calm,Calm,-,N/A,,Mostly Cloudy,0,2014-02-08 20:53:00
3:53 PM,52.0,35.1,53,30.17,10.0,SW,3.5,-,N/A,,Overcast,230,2014-02-08 21:53:00
4:53 PM,51.1,35.1,54,30.17,10.0,WNW,4.6,-,N/A,,Overcast,290,2014-02-08 22:53:00
5:53 PM,48.0,35.1,61,30.17,10.0,NNW,4.6,-,N/A,,Overcast,330,2014-02-08 23:53:00
6:53 PM,46.9,36.0,66,30.19,10.0,NW,5.8,-,N/A,,Overcast,320,2014-02-09 00:53:00
7:53 PM,48.0,35.1,61,30.20,10.0,NW,5.8,-,N/A,,Overcast,320,2014-02-09 01:53:00
8:53 PM,46.9,35.1,63,30.19,10.0,North,4.6,-,N/A,,Overcast,360,2014-02-09 02:53:00
9:53 PM,44.1,35.1,71,30.18,10.0,Calm,Calm,-,N/A,,Mostly Cloudy,0,2014-02-09 03:53:00
10:53 PM,39.0,33.1,79,30.18,10.0,Calm,Calm,-,N/A,,Partly Cloudy,0,2014-02-09 04:53:00
11:53 PM,39.9,35.1,83,30.18,10.0,Calm,Calm,-,N/A,,Overcast,0,2014-02-09 05:53:00